DW8945 Weather Reports


Display with metric or nautical units.
time (UTC)temp
F
wind
direction
speed
MPH
gust
MPH
rain 1hr
in
rain 24hr
in
rain mn
in
humidity
%
barometer
mb
20260509122346 46 238 0.0 0.0 0.00 0.00 0.00 85 1014.2
20260509121851 45 238 0.0 0.0 0.00 0.00 0.00 85 1014.2
20260509121355 45 238 0.0 0.0 0.00 0.00 0.00 85 1014.3
20260509120900 45 238 0.0 0.0 0.00 0.00 0.00 85 1014.5
20260509120420 45 238 0.0 0.0 0.00 0.00 0.00 85 1014.4
20260509115850 45 235 0.0 0.0 0.00 0.00 0.00 85 1014.4
20260509115353 45 235 0.0 0.0 0.00 0.00 0.00 85 1014.5
20260509114856 45 235 0.0 0.0 0.00 0.00 0.00 84 1014.5
20260509114400 45 235 0.0 1.0 0.00 0.00 0.00 84 1014.5
20260509113845 45 235 0.0 4.0 0.00 0.00 0.00 84 1014.5
20260509113351 45 234 0.0 1.0 0.00 0.00 0.00 83 1014.5
20260509112855 45 234 0.0 1.0 0.00 0.00 0.00 83 1014.4
20260509112419 45 234 0.0 3.0 0.00 0.00 0.00 83 1014.4
20260509111901 44 234 0.0 6.0 0.00 0.00 0.00 83 1014.5
20260509111347 44 223 2.0 6.0 0.00 0.00 0.00 83 1014.4
20260509110853 44 331 0.0 2.0 0.00 0.00 0.00 83 1014.3
20260509110350 44 322 0.0 2.0 0.00 0.00 0.00 84 1014.4
20260509105903 44 322 0.0 2.0 0.00 0.00 0.00 84 1014.5
20260509105349 43 323 0.0 2.0 0.00 0.00 0.00 84 1014.5
20260509104913 43 323 0.0 0.0 0.00 0.00 0.00 84 1014.4
20260509104357 43 323 0.0 0.0 0.00 0.00 0.00 84 1014.4
20260509103903 43 323 0.0 0.0 0.00 0.00 0.00 84 1014.3
20260509103406 43 323 0.0 1.0 0.00 0.00 0.00 85 1014.2
20260509102850 43 323 0.0 1.0 0.00 0.00 0.00 85 1014.1
20260509102354 43 323 0.0 0.0 0.00 0.00 0.00 85 1014.0
20260509101856 43 323 0.0 0.0 0.00 0.00 0.00 85 1013.9
20260509101400 42 323 0.0 0.0 0.00 0.00 0.00 85 1013.9
20260509100904 42 323 0.0 0.0 0.00 0.00 0.00 85 1013.8
20260509100342 42 323 0.0 0.0 0.00 0.00 0.00 85 1013.7
20260509095855 42 323 0.0 0.0 0.00 0.00 0.00 85 1013.6
20260509095357 42 323 0.0 0.0 0.00 0.00 0.00 84 1013.6
20260509094857 42 323 0.0 0.0 0.00 0.00 0.00 84 1013.6
20260509094400 41 323 0.0 0.0 0.00 0.00 0.00 84 1013.4
20260509093904 41 323 0.0 0.0 0.00 0.00 0.00 83 1013.5
20260509093404 41 323 0.0 0.0 0.00 0.00 0.00 83 1013.5
20260509092849 41 323 0.0 0.0 0.00 0.00 0.00 83 1013.5
20260509092353 41 323 0.0 0.0 0.00 0.00 0.00 83 1013.5
20260509091917 41 323 0.0 0.0 0.00 0.00 0.00 83 1013.5
20260509091400 41 323 0.0 0.0 0.00 0.00 0.00 83 1013.4
20260509090845 41 323 0.0 0.0 0.00 0.00 0.00 83 1013.4
20260509090343 41 323 0.0 0.0 0.00 0.00 0.00 83 1013.3
20260509085851 41 323 0.0 0.0 0.00 0.00 0.00 83 1013.3
20260509085355 41 323 0.0 0.0 0.00 0.00 0.00 83 1013.3
20260509084858 41 323 0.0 0.0 0.00 0.00 0.00 82 1013.2
20260509084402 41 323 0.0 0.0 0.00 0.00 0.00 82 1013.3
20260509083846 42 323 0.0 0.0 0.00 0.00 0.00 82 1013.1
20260509083423 42 323 0.0 0.0 0.00 0.00 0.00 82 1013.1
20260509082846 42 323 0.0 0.0 0.00 0.00 0.00 82 1013.2
20260509082353 42 323 0.0 0.0 0.00 0.00 0.00 82 1013.3
20260509081856 42 323 0.0 0.0 0.00 0.00 0.00 82 1013.2
20260509081420 42 323 0.0 0.0 0.00 0.00 0.00 82 1013.3
20260509080845 42 323 0.0 0.0 0.00 0.00 0.00 82 1013.3
20260509080344 42 323 0.0 0.0 0.00 0.00 0.00 82 1013.3
20260509075857 42 323 0.0 0.0 0.00 0.00 0.00 82 1013.3
20260509075421 42 323 0.0 0.0 0.00 0.00 0.00 82 1013.3
20260509074903 42 323 0.0 0.0 0.00 0.00 0.00 81 1013.1
20260509074348 42 323 0.0 0.0 0.00 0.00 0.00 81 1013.2
20260509073852 42 323 0.0 0.0 0.00 0.00 0.00 80 1013.3
20260509073351 43 323 0.0 0.0 0.00 0.00 0.00 80 1013.4
20260509072857 43 323 0.0 0.0 0.00 0.00 0.00 80 1013.4
20260509072358 43 323 0.0 0.0 0.00 0.00 0.00 80 1013.5
20260509071859 43 323 0.0 0.0 0.00 0.00 0.00 80 1013.4
20260509071403 43 323 0.0 0.0 0.00 0.00 0.00 80 1013.5
20260509070849 43 323 0.0 0.0 0.00 0.00 0.00 80 1013.5
20260509070351 43 323 0.0 0.0 0.00 0.00 0.00 80 1013.4
20260509065843 43 323 0.0 1.0 0.00 0.00 0.00 80 1013.3
20260509065410 43 323 0.0 1.0 0.00 0.00 0.00 79 1013.2
20260509064852 44 323 0.0 1.0 0.00 0.00 0.00 79 1013.2
20260509064357 44 323 0.0 0.0 0.00 0.00 0.00 78 1013.0
20260509063901 44 323 0.0 0.0 0.00 0.00 0.00 78 1012.7
20260509063400 44 323 0.0 0.0 0.00 0.00 0.00 77 1012.8
20260509062904 44 323 0.0 0.0 0.00 0.00 0.00 77 1013.0
20260509062349 44 323 0.0 0.0 0.00 0.00 0.00 77 1013.0
20260509061852 44 323 0.0 1.0 0.00 0.00 0.00 77 1013.0
20260509061356 44 323 0.0 1.0 0.00 0.00 0.00 76 1013.1
20260509060900 44 323 0.0 1.0 0.00 0.00 0.00 76 1013.1
20260509060355 45 323 0.0 1.0 0.00 0.00 0.00 76 1013.1
20260509055847 45 323 0.0 0.0 0.00 0.00 0.00 75 1013.0
20260509055352 45 323 0.0 0.0 0.00 0.00 0.00 75 1012.9
20260509054851 45 323 0.0 0.0 0.00 0.00 0.00 74 1012.9
20260509054354 45 323 0.0 0.0 0.00 0.00 0.00 74 1013.0
20260509053857 45 323 0.0 0.0 0.00 0.00 0.00 74 1013.0
20260509053358 45 323 0.0 0.0 0.00 0.00 0.00 74 1013.1
20260509052901 46 323 0.0 0.0 0.00 0.00 0.00 74 1013.1
20260509052346 46 323 0.0 0.0 0.00 0.00 0.00 73 1013.1
20260509051852 46 323 0.0 0.0 0.00 0.00 0.00 73 1013.0
20260509051357 46 323 0.0 0.0 0.00 0.00 0.00 73 1012.9
20260509050845 46 323 0.0 0.0 0.00 0.00 0.00 72 1012.9
20260509050346 46 323 0.0 0.0 0.00 0.00 0.00 72 1012.9
20260509045857 46 323 0.0 0.0 0.00 0.00 0.00 72 1012.9
20260509045345 46 323 0.0 0.0 0.00 0.00 0.00 72 1012.8
20260509044851 47 323 0.0 0.0 0.00 0.00 0.00 71 1012.9
20260509044357 47 323 0.0 0.0 0.00 0.00 0.00 70 1012.8
20260509043843 47 323 0.0 0.0 0.00 0.00 0.00 70 1012.8
20260509043347 47 323 0.0 0.0 0.00 0.00 0.00 70 1012.8
20260509042847 47 323 0.0 0.0 0.00 0.00 0.00 70 1012.8
20260509042408 47 323 0.0 0.0 0.00 0.00 0.00 69 1012.8
20260509041915 47 323 0.0 0.0 0.00 0.00 0.00 69 1012.8
20260509041420 47 323 0.0 0.0 0.00 0.00 0.00 68 1012.7
20260509040903 48 323 0.0 0.0 0.00 0.00 0.00 68 1012.7
20260509040355 48 323 0.0 0.0 0.00 0.00 0.00 67 1012.6
20260509035904 48 323 0.0 0.0 0.00 0.00 0.00 67 1012.5
20260509035348 48 323 0.0 0.0 0.00 0.00 0.00 67 1012.5
20260509034849 48 323 0.0 0.0 0.00 0.00 0.00 67 1012.5
20260509034350 49 323 0.0 0.0 0.00 0.00 0.00 66 1012.5
20260509033916 49 323 0.0 0.0 0.00 0.00 0.00 65 1012.4
20260509033354 49 323 0.0 0.0 0.00 0.00 0.00 64 1012.5
20260509032900 49 323 0.0 0.0 0.00 0.00 0.00 63 1012.4
20260509032403 50 323 0.0 0.0 0.00 0.00 0.00 63 1012.4
20260509031844 50 323 0.0 0.0 0.00 0.00 0.00 62 1012.5
20260509031350 50 323 0.0 0.0 0.00 0.00 0.00 62 1012.4
20260509030854 50 323 0.0 0.0 0.00 0.00 0.00 61 1012.4
20260509030350 51 323 0.0 0.0 0.00 0.00 0.00 60 1012.2
20260509025921 51 323 0.0 0.0 0.00 0.00 0.00 59 1012.3
20260509025345 51 323 0.0 0.0 0.00 0.00 0.00 59 1012.3
20260509024850 51 323 0.0 0.0 0.00 0.00 0.00 59 1012.3
20260509024354 51 323 0.0 0.0 0.00 0.00 0.00 58 1012.3
20260509023857 51 323 0.0 3.0 0.00 0.00 0.00 58 1012.2
20260509023359 51 323 0.0 3.0 0.00 0.00 0.00 58 1012.2
20260509022842 52 323 0.0 2.0 0.00 0.00 0.00 59 1012.1
20260509022356 52 323 0.0 0.0 0.00 0.00 0.00 58 1012.2
20260509021859 52 323 0.0 0.0 0.00 0.00 0.00 57 1012.1
20260509021404 52 323 0.0 1.0 0.00 0.00 0.00 57 1012.0
20260509020847 53 323 0.0 1.0 0.00 0.00 0.00 55 1012.0
20260509020347 53 323 0.0 1.0 0.00 0.00 0.00 55 1011.9
20260509015858 53 323 0.0 1.0 0.00 0.00 0.00 55 1011.8
20260509015401 53 323 0.0 1.0 0.00 0.00 0.00 54 1011.7
20260509014843 53 323 0.0 2.0 0.00 0.00 0.00 54 1011.7
20260509014351 53 323 0.0 3.0 0.00 0.00 0.00 53 1011.6
20260509013853 54 323 1.0 4.0 0.00 0.00 0.00 53 1011.5
20260509013353 54 323 0.0 4.0 0.00 0.00 0.00 53 1011.4
20260509012856 54 323 0.0 2.0 0.00 0.00 0.00 53 1011.3
20260509012401 54 323 0.0 2.0 0.00 0.00 0.00 52 1011.2
20260509011846 54 323 0.0 5.0 0.00 0.00 0.00 52 1011.1
20260509011351 54 323 2.0 5.0 0.00 0.00 0.00 51 1011.0
20260509010857 55 327 2.0 5.0 0.00 0.00 0.00 51 1010.8
20260509010359 55 298 2.0 4.0 0.00 0.00 0.00 52 1010.6
20260509005850 55 298 1.0 4.0 0.00 0.00 0.00 51 1010.5
20260509005357 55 301 1.0 4.0 0.00 0.00 0.00 51 1010.4
20260509004901 55 300 1.0 4.0 0.00 0.00 0.00 51 1010.4
20260509004347 55 300 1.0 4.0 0.00 0.00 0.00 51 1010.2
20260509003914 55 300 1.0 4.0 0.00 0.00 0.00 51 1010.1
20260509003357 55 301 1.0 4.0 0.00 0.00 0.00 51 1009.9
20260509002844 55 300 1.0 3.0 0.00 0.00 0.00 50 1009.8
20260509002411 55 301 1.0 5.0 0.00 0.00 0.00 50 1009.8
20260509001916 55 300 2.0 5.0 0.00 0.00 0.00 49 1009.7
20260509001358 55 304 1.0 3.0 0.00 0.00 0.00 49 1009.5
20260509000902 55 304 0.0 6.0 0.00 0.00 0.00 48 1009.4
20260509000341 56 304 1.0 6.0 0.00 0.00 0.00 48 1009.4
20260508235851 56 307 1.0 4.0 0.00 0.00 0.00 48 1009.4
20260508235357 56 308 1.0 4.0 0.00 0.00 0.00 47 1009.2
20260508234857 56 306 1.0 6.0 0.00 0.00 0.00 47 1009.1
20260508234341 56 334 2.0 6.0 0.00 0.00 0.00 46 1009.1
20260508233907 56 321 3.0 8.0 0.00 0.00 0.00 46 1009.0
20260508233348 57 332 3.0 8.0 0.00 0.00 0.00 46 1008.9
20260508232853 57 317 2.0 10.0 0.00 0.00 0.00 45 1008.8
20260508232355 57 329 1.0 10.0 0.00 0.00 0.00 44 1008.8
20260508231858 57 239 4.0 10.0 0.00 0.00 0.00 44 1008.8
20260508231341 58 289 3.0 8.0 0.00 0.00 0.00 43 1008.7
20260508230848 58 315 3.0 8.0 0.00 0.00 0.00 43 1008.6
20260508230345 58 320 1.0 8.0 0.00 0.00 0.00 43 1008.6
20260508225917 59 321 3.0 10.0 0.00 0.00 0.00 43 1008.6
20260508225400 59 287 4.0 10.0 0.00 0.00 0.00 42 1008.5
20260508224901 59 331 4.0 7.0 0.00 0.00 0.00 42 1008.5
20260508224348 59 271 2.0 6.0 0.00 0.00 0.00 42 1008.4
20260508223850 59 273 1.0 8.0 0.00 0.00 0.00 41 1008.4
20260508223352 60 331 3.0 7.0 0.00 0.00 0.00 41 1008.4
20260508222856 60 294 4.0 7.0 0.00 0.00 0.00 40 1008.4
20260508222401 60 334 2.0 8.0 0.00 0.00 0.00 42 1008.4
20260508221842 60 271 4.0 8.0 0.00 0.00 0.00 41 1008.3
20260508221348 60 360 3.0 9.0 0.00 0.00 0.00 41 1008.3
20260508220853 60 297 2.0 12.0 0.00 0.00 0.00 41 1008.4
20260508220352 60 277 4.0 12.0 0.00 0.00 0.00 40 1008.5
20260508215845 60 315 3.0 9.0 0.00 0.00 0.00 40 1008.4
20260508215351 60 290 4.0 11.0 0.00 0.00 0.00 40 1008.3
20260508214853 61 304 3.0 11.0 0.00 0.00 0.00 39 1008.3
20260508214358 61 267 3.0 10.0 0.00 0.00 0.00 39 1008.2
20260508213923 61 198 4.0 10.0 0.00 0.00 0.00 39 1008.2
20260508213343 61 236 5.0 10.0 0.00 0.00 0.00 38 1008.1
20260508212849 61 288 3.0 12.0 0.00 0.00 0.00 37 1008.1
20260508212353 61 300 5.0 12.0 0.00 0.00 0.00 36 1008.0
20260508211853 61 306 3.0 13.0 0.00 0.00 0.00 36 1008.0
20260508211357 61 321 5.0 13.0 0.00 0.00 0.00 36 1008.0
20260508210920 61 286 4.0 12.0 0.00 0.00 0.00 35 1008.0
20260508210359 61 347 4.0 12.0 0.00 0.00 0.00 37 1008.0
20260508205848 61 306 6.0 15.0 0.00 0.00 0.00 36 1008.0
20260508205354 61 281 2.0 13.0 0.00 0.00 0.00 36 1007.9
20260508204857 61 26 6.0 12.0 0.00 0.00 0.00 35 1007.9
20260508204340 62 262 4.0 10.0 0.00 0.00 0.00 36 1007.8
20260508203846 62 17 4.0 13.0 0.00 0.00 0.00 36 1007.8
20260508203348 62 240 3.0 13.0 0.00 0.00 0.00 36 1007.8
20260508202853 62 294 4.0 15.0 0.00 0.00 0.00 36 1007.8
20260508202357 62 278 5.0 15.0 0.00 0.00 0.00 36 1007.6
20260508201858 62 293 7.0 13.0 0.00 0.00 0.00 36 1007.7
20260508201419 62 300 2.0 8.0 0.00 0.00 0.00 38 1007.6
20260508200842 62 281 4.0 10.0 0.00 0.00 0.00 37 1007.6
20260508200401 63 5 2.0 11.0 0.00 0.00 0.00 38 1007.6
20260508195854 63 154 2.0 12.0 0.00 0.00 0.00 37 1007.6
20260508195416 62 322 4.0 14.0 0.00 0.00 0.00 37 1007.6
20260508194855 62 327 8.0 14.0 0.00 0.00 0.00 36 1007.5
20260508194415 62 360 2.0 11.0 0.00 0.00 0.00 37 1007.5
20260508193846 62 302 3.0 9.0 0.00 0.00 0.00 37 1007.5
20260508193347 62 296 3.0 10.0 0.00 0.00 0.00 36 1007.5
20260508192908 61 302 3.0 10.0 0.00 0.00 0.00 37 1007.6
20260508192345 61 355 5.0 12.0 0.00 0.00 0.00 36 1007.5
20260508191911 61 334 4.0 12.0 0.00 0.00 0.00 36 1007.6
20260508191354 62 275 3.0 11.0 0.00 0.00 0.00 35 1007.6
20260508190840 62 355 4.0 11.0 0.00 0.00 0.00 35 1007.5
20260508190343 62 294 5.0 13.0 0.00 0.00 0.00 34 1007.5
20260508185854 62 267 3.0 12.0 0.00 0.00 0.00 35 1007.5
20260508185402 62 312 5.0 13.0 0.00 0.00 0.00 33 1007.5
20260508184845 63 329 3.0 13.0 0.00 0.00 0.00 33 1007.5
20260508184352 63 336 4.0 15.0 0.00 0.00 0.00 34 1007.5
20260508183856 63 305 5.0 15.0 0.00 0.00 0.00 34 1007.6
20260508183400 63 284 9.0 15.0 0.00 0.00 0.00 33 1007.6
20260508182847 63 297 5.0 13.0 0.00 0.00 0.00 34 1007.6
20260508182415 62 288 3.0 14.0 0.00 0.00 0.00 35 1007.5
20260508181858 62 300 2.0 14.0 0.00 0.00 0.00 34 1007.6
20260508181401 62 275 6.0 16.0 0.00 0.00 0.00 34 1007.6
20260508180845 62 317 6.0 16.0 0.00 0.00 0.00 35 1007.5
20260508180345 62 284 5.0 12.0 0.00 0.00 0.00 35 1007.5
20260508175856 62 286 3.0 12.0 0.00 0.00 0.00 35 1007.5
20260508175421 62 298 4.0 12.0 0.00 0.00 0.00 36 1007.6
20260508174846 62 263 2.0 8.0 0.00 0.00 0.00 36 1007.5
20260508174351 62 300 3.0 9.0 0.00 0.00 0.00 36 1007.6
20260508173917 62 286 3.0 15.0 0.00 0.00 0.00 37 1007.6
20260508173359 62 331 4.0 15.0 0.00 0.00 0.00 37 1007.6
20260508172844 62 319 3.0 13.0 0.00 0.00 0.00 36 1007.6
20260508172351 62 290 6.0 13.0 0.00 0.00 0.00 36 1007.7
20260508171854 61 319 4.0 14.0 0.00 0.00 0.00 36 1007.7
20260508171358 61 286 6.0 14.0 0.00 0.00 0.00 35 1007.7
20260508170844 61 190 6.0 14.0 0.00 0.00 0.00 34 1007.7
20260508170340 62 296 6.0 14.0 0.00 0.00 0.00 34 1007.8
20260508165852 61 339 4.0 14.0 0.00 0.00 0.00 36 1007.7
20260508165358 60 292 3.0 15.0 0.00 0.00 0.00 38 1007.6
20260508164858 60 285 6.0 15.0 0.00 0.00 0.00 37 1007.7
20260508164344 60 306 7.0 15.0 0.00 0.00 0.00 38 1007.8
20260508163850 60 325 2.0 11.0 0.00 0.00 0.00 38 1007.8
20260508163350 61 296 4.0 9.0 0.00 0.00 0.00 37 1007.8
20260508162855 62 313 2.0 13.0 0.00 0.00 0.00 37 1007.8
20260508162400 62 355 4.0 13.0 0.00 0.00 0.00 37 1007.7
20260508161841 62 304 4.0 14.0 0.00 0.00 0.00 36 1007.7
20260508161345 61 289 4.0 12.0 0.00 0.00 0.00 38 1007.7
20260508160848 60 302 3.0 8.0 0.00 0.00 0.00 38 1007.7
20260508160358 60 315 1.0 8.0 0.00 0.00 0.00 38 1007.8
20260508155842 60 308 2.0 7.0 0.00 0.00 0.00 37 1007.9
20260508155408 60 296 3.0 7.0 0.00 0.00 0.00 37 1008.0
20260508154859 60 340 1.0 12.0 0.00 0.00 0.00 38 1008.1
20260508154344 60 323 5.0 12.0 0.00 0.00 0.00 37 1008.2
20260508153848 60 291 4.0 12.0 0.00 0.00 0.00 37 1008.2
20260508153345 60 308 3.0 10.0 0.00 0.00 0.00 38 1008.2
20260508152851 61 282 3.0 10.0 0.00 0.00 0.00 37 1008.2
20260508152357 60 355 2.0 11.0 0.00 0.00 0.00 38 1008.2
20260508151858 60 322 4.0 11.0 0.00 0.00 0.00 39 1008.2
20260508151402 60 305 3.0 14.0 0.00 0.00 0.00 39 1008.2
20260508150846 60 303 3.0 6.0 0.00 0.00 0.00 38 1008.3
20260508150402 60 5 0.0 10.0 0.00 0.00 0.00 38 1008.2
20260508145852 59 342 3.0 12.0 0.00 0.00 0.00 38 1008.3
20260508145357 59 281 6.0 12.0 0.00 0.00 0.00 38 1008.4
20260508144858 59 215 2.0 9.0 0.00 0.00 0.00 37 1008.3
20260508144345 59 318 3.0 7.0 0.00 0.00 0.00 38 1008.5
20260508143850 59 336 2.0 8.0 0.00 0.00 0.00 37 1008.4
20260508143357 60 304 3.0 8.0 0.00 0.00 0.00 36 1008.4
20260508142902 60 307 2.0 8.0 0.00 0.00 0.00 36 1008.4
20260508142354 61 340 1.0 5.0 0.00 0.00 0.00 37 1008.5
20260508141854 60 298 0.0 13.0 0.00 0.00 0.00 38 1008.6
20260508141357 60 44 1.0 13.0 0.00 0.00 0.00 37 1008.6
20260508140902 60 334 2.0 6.0 0.00 0.00 0.00 38 1008.6
20260508140351 59 270 0.0 7.0 0.00 0.00 0.00 41 1008.6
20260508135859 59 327 2.0 9.0 0.00 0.00 0.00 39 1008.7
20260508135401 59 247 3.0 11.0 0.00 0.00 0.00 38 1008.7
20260508134900 58 325 4.0 11.0 0.00 0.00 0.00 39 1008.8
20260508134407 58 306 4.0 7.0 0.00 0.00 0.00 40 1008.9
20260508133852 58 308 2.0 8.0 0.00 0.00 0.00 41 1009.0
20260508133352 57 313 3.0 8.0 0.00 0.00 0.00 41 1009.0
20260508132856 57 317 1.0 7.0 0.00 0.00 0.00 42 1009.0
20260508132358 56 317 3.0 7.0 0.00 0.00 0.00 42 1009.1
20260508131856 56 312 3.0 8.0 0.00 0.00 0.00 42 1009.1
20260508131402 56 317 4.0 8.0 0.00 0.00 0.00 42 1009.2
20260508130847 56 302 4.0 8.0 0.00 0.00 0.00 42 1009.2
20260508130400 56 303 3.0 7.0 0.00 0.00 0.00 43 1009.2
20260508125850 56 313 1.0 7.0 0.00 0.00 0.00 44 1009.2
20260508125354 56 310 1.0 7.0 0.00 0.00 0.00 44 1009.2
20260508124854 56 315 3.0 6.0 0.00 0.00 0.00 45 1009.2
20260508124418 56 315 3.0 6.0 0.00 0.00 0.00 44 1009.2
20260508123902 55 313 2.0 7.0 0.00 0.00 0.00 45 1009.2
20260508123401 55 319 1.0 7.0 0.00 0.00 0.00 46 1009.2
20260508122847 54 312 1.0 6.0 0.00 0.00 0.00 48 1009.2